Wind_Speed
20 19 20 22 22 23 24 23 24 23 23 24 26 26 27 27 28 28 28 28 28 28 28 28 28 28 28 28 28 29 29 29 29 30 31 31 31 31 31 32 32 32 32 32
22 22 23 23 23 24 24 24 25 24 24 25 26 26 27 28 28 28 28 29 29 29 28 28 28 29 29 30 30 30 31 31 30 31 32 32 32 33 33 33 34 34 34 34
23 24 24 24 24 24 25 25 25 26 26 26 27 26 27 27 28 28 28 28 29 29 29 29 29 29 30 30 31 31 32 32 32 32 32 33 34 35 35 34 34 35 35 36
24 24 25 24 24 24 25 25 26 26 27 27 27 27 27 28 28 29 29 29 29 29 29 30 30 31 31 31 31 32 33 33 34 34 34 34 35 35 35 35 35 36 37 37
25 25 25 24 25 25 25 26 27 27 27 27 27 28 29 29 29 29 30 30 30 29 30 30 31 31 32 32 33 33 33 34 34 34 35 35 35 35 35 36 36 37 37 37
26 27 27 26 25 26 27 27 27 27 27 28 28 29 29 29 30 30 30 31 31 30 30 30 31 32 32 33 33 34 34 34 34 35 35 35 36 36 36 36 37 37 37 37
26 27 27 26 26 26 27 28 28 28 28 29 30 30 31 31 31 31 31 31 31 31 31 31 31 32 33 33 33 34 34 34 34 35 35 35 36 36 35 35 35 36 36 36
26 27 27 26 27 27 27 28 29 29 29 30 31 32 33 33 33 32 32 32 32 32 32 32 32 33 33 34 34 34 34 34 35 35 35 35 35 35 35 35 35 35 35 35
28 28 27 27 28 29 29 30 30 30 30 31 31 32 33 33 33 33 33 33 33 33 33 33 33 33 34 34 34 35 34 34 34 34 35 35 35 35 35 35 35 35 35 35
28 28 29 29 29 30 30 30 31 31 30 31 32 33 33 33 33 34 34 34 35 35 36 35 35 35 35 36 36 35 35 34 34 34 34 34 34 34 34 34 35 35 35 35
30 29 31 31 31 31 31 31 32 31 31 32 33 33 33 33 33 34 34 35 35 35 35 35 36 36 37 36 36 36 35 35 34 33 33 33 34 33 33 33 33 34 34 35
30 30 32 32 32 31 32 32 33 33 33 33 33 34 34 34 35 35 35 35 35 35 35 35 35 36 36 36 36 35 34 34 34 34 34 34 33 33 33 32 33 33 34 35
31 32 33 33 33 33 33 33 34 34 34 34 34 34 34 34 35 35 35 35 35 35 35 35 35 35 35 35 35 34 34 33 34 34 34 33 33 33 33 33 33 33 34 35
32 33 33 33 33 34 34 34 34 34 35 35 35 35 34 35 35 35 35 35 35 35 35 35 35 35 34 34 34 34 34 34 34 33 32 33 33 33 33 33 33 34 34 35
32 32 33 33 33 33 33 34 33 33 34 35 35 34 34 35 35 35 35 35 35 35 35 35 35 34 34 34 34 35 35 34 34 33 33 32 32 32 32 33 33 34 34 35
32 32 32 32 32 32 33 33 34 34 34 34 33 34 34 34 34 34 35 35 35 35 35 35 34 34 33 33 34 35 34 33 33 33 33 33 32 32 33 33 34 34 35 35
31 31 31 32 32 32 32 33 33 34 34 33 33 33 33 34 34 35 35 35 35 35 34 34 34 34 34 34 34 34 34 33 33 33 33 33 33 33 34 34 35 35 35 35
31 31 31 31 31 32 32 32 32 33 33 33 33 33 33 34 34 34 34 34 34 34 34 34 34 34 34 35 35 34 34 34 34 34 34 34 34 34 35 35 35 35 35 35
30 30 30 31 31 31 31 31 31 32 32 31 31 31 32 33 33 34 34 34 33 33 33 33 33 34 34 34 34 34 34 34 34 34 35 35 35 35 35 35 35 35 35 35
30 30 30 31 31 31 31 31 31 31 32 31 31 31 31 32 33 33 33 33 32 32 32 32 33 33 33 33 33 33 34 34 34 35 35 36 35 35 35 35 35 35 35 34
29 29 29 30 30 30 31 31 31 31 31 31 31 31 31 32 32 32 32 32 32 33 33 33 33 33 33 33 33 33 33 33 33 34 35 35 35 35 35 35 35 35 34 33
29 29 29 30 31 31 31 31 31 31 31 31 31 31 32 32 32 33 32 32 32 32 32 32 32 32 32 32 32 32 32 32 32 33 33 34 34 33 34 34 34 34 33 32
29 29 29 30 30 31 31 31 31 31 31 31 31 32 32 32 32 32 32 31 31 31 31 31 31 31 31 31 31 31 31 31 32 32 32 33 33 33 33 33 33 33 32 32
29 30 30 30 30 30 30 31 31 31 31 31 31 31 31 31 31 31 30 30 29 30 30 31 31 31 31 31 31 30 31 31 31 31 32 32 32 32 32 32 32 31 31 30
30 31 31 31 31 31 31 31 31 31 31 31 31 30 30 30 29 29 29 29 29 30 30 31 31 31 31 31 30 30 30 30 30 31 31 31 31 30 30 29 29 28 27 27
31 31 31 31 31 31 31 31 31 31 30 30 30 30 30 29 29 29 29 29 29 29 30 30 31 31 31 30 30 30 29 30 30 29 29 28 28 28 27 27 27 26 26 25
31 31 31 30 30 30 31 30 30 30 30 30 30 30 29 29 29 29 29 29 29 29 30 30 30 30 29 29 28 28 28 29 29 28 28 28 28 27 27 26 26 26 25 25
Wind_Direction
281 283 282 280 280 280 279 279 280 282 281 282 284 285 287 289 291 291 291 293 295 294 291 291 291 291 290 289 287 285 285 285 285 286 285 285 284 283 283 281 281 280 280 280
281 282 284 283 283 282 281 280 281 283 283 282 283 285 286 289 291 290 291 292 294 294 293 291 290 291 290 289 288 286 285 284 285 285 285 284 284 284 284 282 281 281 280 280
281 283 283 284 283 283 281 281 281 281 283 283 284 286 287 288 290 291 291 291 292 292 292 291 290 290 290 290 289 288 287 286 285 284 284 285 285 286 286 284 282 281 280 280
282 282 282 285 285 285 284 282 282 283 284 286 286 287 287 288 290 291 292 292 293 292 292 292 291 290 291 291 291 289 288 287 287 286 285 286 286 287 287 286 284 282 281 279
283 283 284 284 286 287 286 284 283 284 285 286 286 286 285 287 289 291 292 292 292 292 291 291 291 291 291 291 291 290 289 288 287 286 286 286 287 287 287 286 285 283 281 280
283 283 284 285 284 286 287 285 286 287 287 286 286 286 287 287 288 289 290 291 292 292 292 292 292 291 291 291 291 290 289 289 287 287 286 286 287 287 287 287 286 284 283 281
282 282 283 286 286 288 286 288 287 286 286 285 285 286 287 288 289 290 290 291 292 292 292 292 292 293 292 292 292 291 290 289 288 287 288 288 288 287 287 287 287 286 285 283
283 283 285 288 287 285 286 286 287 287 287 286 286 287 287 287 288 288 289 291 291 291 291 292 292 293 292 292 293 292 291 290 289 288 289 289 289 287 287 286 286 286 285 284
282 282 284 285 285 285 286 287 288 288 289 289 289 289 289 289 289 290 290 291 290 290 290 290 291 291 292 293 293 292 291 291 291 291 290 290 290 288 287 286 286 287 286 285
280 281 281 282 283 284 285 286 287 288 289 290 292 293 293 292 292 291 291 292 292 291 290 290 291 290 291 292 292 292 291 291 292 292 292 292 292 290 289 288 287 287 287 286
279 281 280 280 282 284 285 285 286 288 290 292 293 293 294 294 293 293 294 293 293 292 292 291 290 290 291 291 291 291 290 290 291 292 292 292 292 292 292 290 290 289 288 289
278 278 278 281 282 284 285 286 287 288 290 292 292 292 294 294 294 294 294 295 295 294 293 293 292 292 291 290 289 290 291 290 290 290 291 292 292 292 292 292 291 291 291 290
276 278 280 281 283 285 286 287 288 289 291 291 291 292 294 295 295 295 295 295 295 296 296 295 295 293 292 291 291 290 291 291 291 290 291 291 291 292 292 292 292 292 292 292
276 278 280 282 284 286 287 288 289 290 291 291 292 293 294 295 296 296 296 295 296 296 296 296 295 294 293 292 292 291 291 290 290 290 290 291 292 293 293 293 292 293 293 293
278 279 281 283 284 286 287 288 289 291 292 292 293 293 293 294 295 296 296 296 296 296 296 295 295 295 294 295 293 292 291 290 290 289 290 291 292 293 293 293 294 294 294 295
278 279 281 282 283 285 287 289 291 292 293 294 294 294 294 294 295 296 296 296 296 296 296 294 295 295 295 295 294 293 292 291 289 289 289 290 292 293 293 293 294 295 295 295
280 281 282 283 284 285 287 289 291 293 294 294 295 295 295 295 295 296 297 298 297 297 297 295 295 295 294 295 295 293 291 290 289 289 289 290 291 292 293 293 294 296 297 297
281 282 283 285 286 287 288 290 291 293 294 294 294 295 295 296 296 296 297 298 298 298 297 296 296 295 295 295 294 293 291 289 288 288 289 290 291 292 294 294 295 295 296 297
280 282 284 286 287 288 289 290 291 292 294 294 295 296 296 296 297 298 298 297 298 299 298 298 297 296 296 296 295 293 292 290 289 289 289 291 291 292 293 294 295 295 296 297
280 282 284 287 288 288 289 289 291 292 294 294 295 296 296 297 297 298 298 298 298 299 299 300 300 299 298 297 296 294 292 291 291 290 290 291 291 291 292 293 294 295 296 297
279 281 284 285 286 287 288 290 291 292 293 294 294 295 296 297 297 298 298 298 298 298 299 300 301 300 299 298 297 295 294 293 293 293 293 293 292 293 293 294 294 295 295 295
280 282 284 286 287 288 289 291 292 293 294 295 295 295 296 297 298 298 298 298 299 299 300 301 301 301 300 299 298 297 297 296 295 295 295 294 295 295 296 296 295 295 295 294
281 282 284 286 288 289 290 291 292 294 295 296 296 296 296 297 298 299 299 299 299 300 301 302 302 302 301 301 300 299 298 298 297 297 296 296 296 296 297 297 296 296 295 294
281 282 284 287 288 289 290 291 293 295 296 297 297 297 297 298 299 300 300 300 301 301 303 303 303 304 303 302 301 300 300 299 299 298 297 297 297 297 297 298 297 296 296 295
281 283 285 286 288 290 291 292 293 295 296 297 297 298 299 299 299 301 302 302 302 303 304 304 304 305 304 302 301 301 301 301 301 300 299 299 298 299 299 299 298 297 297 297
282 283 285 286 288 289 290 292 293 294 295 296 297 298 298 298 299 300 301 302 303 304 304 304 305 305 305 303 302 302 302 303 303 301 300 300 300 301 301 301 300 299 299 299
283 283 284 286 287 289 290 292 293 294 295 296 297 298 298 298 299 301 301 302 302 303 304 304 305 306 306 306 306 305 305 305 305 304 304 303 301 301 301 301 300 299 300 299
Height
5807 5806 5805 5804 5803 5802 5801 5801 5800 5799 5797 5796 5794 5793 5791 5789 5787 5786 5784 5782 5780 5778 5777 5775 5773 5771 5770 5768 5766 5765 5763 5762 5761 5759 5758 5757 5755 5754 5754 5753 5752 5751 5751 5750
5802 5801 5799 5798 5798 5796 5795 5794 5793 5792 5791 5790 5788 5786 5784 5783 5781 5779 5777 5775 5773 5771 5769 5767 5766 5764 5762 5760 5759 5757 5755 5754 5752 5751 5749 5748 5747 5745 5744 5743 5743 5742 5741 5740
5796 5795 5793 5792 5792 5790 5789 5787 5786 5785 5784 5782 5781 5779 5777 5775 5774 5771 5770 5768 5765 5763 5761 5759 5758 5756 5754 5752 5751 5749 5747 5745 5744 5742 5741 5739 5738 5736 5735 5734 5732 5731 5731 5730
5789 5788 5787 5789 5785 5784 5782 5781 5779 5778 5776 5775 5773 5772 5770 5768 5766 5764 5762 5760 5758 5756 5754 5752 5750 5748 5746 5744 5742 5740 5738 5736 5734 5733 5731 5730 5728 5726 5725 5723 5722 5721 5720 5719
5782 5781 5780 5781 5778 5777 5775 5774 5772 5771 5769 5768 5766 5764 5762 5760 5759 5757 5754 5752 5750 5748 5746 5744 5741 5739 5737 5735 5733 5731 5729 5726 5725 5723 5722 5720 5718 5716 5715 5713 5711 5710 5708 5707
5776 5774 5773 5774 5772 5770 5769 5766 5765 5763 5761 5760 5758 5757 5756 5753 5751 5749 5746 5744 5742 5740 5738 5735 5733 5731 5728 5726 5724 5722 5719 5717 5715 5713 5711 5709 5708 5706 5704 5702 5700 5699 5697 5696
5769 5767 5766 5767 5764 5763 5762 5760 5758 5756 5754 5752 5750 5749 5747 5745 5743 5741 5738 5736 5734 5731 5729 5727 5724 5722 5720 5717 5715 5713 5710 5707 5705 5703 5701 5699 5697 5695 5693 5692 5690 5688 5686 5685
5761 5760 5761 5759 5757 5756 5754 5751 5749 5748 5746 5744 5742 5740 5737 5735 5733 5731 5729 5727 5725 5722 5720 5718 5715 5713 5710 5708 5705 5703 5700 5698 5695 5693 5691 5689 5687 5685 5683 5681 5679 5677 5676 5674
5755 5755 5753 5750 5749 5747 5745 5743 5741 5739 5738 5736 5733 5731 5729 5727 5724 5722 5720 5718 5715 5713 5711 5708 5706 5703 5701 5698 5695 5693 5690 5688 5685 5683 5681 5679 5677 5674 5672 5671 5669 5667 5665 5664
5747 5746 5744 5742 5741 5739 5737 5735 5733 5731 5730 5727 5725 5722 5720 5717 5715 5712 5710 5708 5705 5703 5700 5698 5696 5693 5690 5688 5685 5682 5680 5678 5676 5674 5671 5669 5667 5664 5662 5660 5658 5657 5655 5653
5738 5737 5735 5733 5732 5731 5729 5727 5725 5723 5721 5719 5716 5713 5711 5708 5705 5703 5700 5698 5695 5692 5690 5688 5685 5683 5680 5677 5675 5673 5670 5668 5666 5664 5662 5659 5657 5655 5652 5650 5648 5646 5644 5642
5730 5728 5726 5725 5723 5722 5720 5719 5717 5715 5713 5710 5707 5704 5701 5698 5696 5693 5690 5687 5685 5682 5679 5677 5675 5672 5670 5667 5665 5662 5660 5658 5656 5654 5652 5650 5647 5645 5643 5641 5638 5636 5633 5632
5720 5718 5717 5716 5714 5713 5711 5710 5708 5706 5703 5701 5698 5695 5692 5689 5686 5683 5680 5677 5675 5672 5669 5667 5664 5662 5659 5657 5654 5652 5650 5648 5646 5644 5642 5640 5638 5636 5634 5631 5629 5626 5624 5621
5711 5709 5708 5707 5706 5704 5702 5700 5699 5696 5694 5691 5688 5686 5682 5679 5676 5673 5670 5667 5665 5662 5659 5657 5654 5652 5649 5647 5644 5642 5640 5638 5636 5634 5632 5630 5628 5626 5624 5621 5619 5617 5614 5611
5702 5701 5700 5698 5697 5695 5693 5691 5689 5687 5684 5682 5679 5676 5673 5670 5666 5663 5661 5658 5655 5652 5649 5647 5644 5642 5639 5637 5635 5632 5630 5628 5626 5624 5622 5620 5618 5616 5614 5611 5609 5606 5604 5601
5693 5692 5690 5689 5687 5686 5684 5682 5680 5678 5675 5672 5669 5666 5663 5660 5657 5654 5651 5648 5645 5642 5639 5637 5634 5632 5629 5627 5625 5622 5620 5618 5616 5614 5612 5610 5608 5606 5604 5602 5599 5596 5594 5591
5683 5682 5681 5680 5678 5677 5675 5673 5670 5668 5665 5662 5660 5657 5654 5651 5648 5645 5642 5639 5635 5632 5629 5627 5625 5622 5620 5617 5615 5612 5610 5608 5606 5604 5602 5600 5598 5596 5594 5592 5589 5586 5583 5580
5674 5673 5672 5670 5669 5667 5666 5664 5661 5658 5656 5653 5651 5648 5645 5642 5639 5636 5632 5629 5626 5623 5620 5617 5615 5612 5610 5607 5605 5602 5600 5598 5596 5594 5592 5590 5588 5586 5584 5581 5579 5576 5573 5570
5665 5664 5663 5661 5660 5658 5656 5654 5652 5649 5647 5644 5641 5638 5636 5633 5629 5626 5623 5620 5617 5615 5612 5608 5606 5603 5600 5597 5594 5592 5589 5587 5586 5584 5582 5580 5577 5575 5573 5571 5568 5565 5562 5559
5657 5656 5654 5653 5651 5649 5647 5645 5643 5640 5638 5635 5632 5630 5627 5624 5621 5618 5614 5611 5608 5605 5602 5599 5596 5593 5590 5587 5584 5582 5579 5577 5575 5573 5571 5569 5567 5564 5562 5560 5557 5555 5552 5549
5648 5647 5645 5644 5642 5640 5638 5636 5634 5631 5629 5626 5623 5621 5618 5615 5612 5609 5606 5603 5600 5597 5594 5590 5587 5584 5581 5578 5575 5572 5570 5567 5565 5563 5561 5558 5556 5554 5551 5549 5546 5544 5541 5538
5639 5638 5637 5635 5633 5631 5629 5627 5625 5622 5620 5617 5615 5612 5609 5606 5603 5600 5597 5594 5591 5587 5584 5581 5578 5575 5571 5568 5566 5563 5560 5558 5555 5553 5551 5548 5546 5543 5541 5538 5536 5533 5530 5528
5630 5629 5628 5626 5624 5622 5620 5618 5616 5613 5611 5608 5605 5603 5600 5597 5594 5591 5588 5585 5581 5579 5576 5572 5569 5566 5563 5560 5557 5554 5551 5549 5546 5543 5541 5538 5536 5533 5531 5528 5525 5523 5520 5518
5621 5620 5619 5617 5615 5613 5611 5609 5607 5604 5602 5599 5596 5593 5591 5588 5585 5582 5578 5576 5573 5570 5567 5564 5561 5558 5554 5551 5548 5546 5543 5540 5537 5534 5531 5529 5526 5524 5521 5518 5515 5513 5510 5508
5611 5610 5609 5608 5606 5604 5602 5600 5598 5595 5593 5590 5588 5585 5582 5579 5576 5573 5570 5567 5565 5562 5559 5556 5552 5549 5546 5543 5540 5537 5534 5531 5528 5525 5522 5519 5517 5514 5511 5509 5506 5504 5501 5499
5602 5601 5599 5598 5597 5595 5593 5591 5589 5587 5584 5582 5579 5576 5573 5571 5568 5565 5562 5559 5556 5554 5551 5547 5544 5541 5538 5534 5531 5528 5525 5522 5519 5516 5513 5510 5508 5505 5503 5500 5498 5495 5493 5491
5593 5591 5590 5589 5587 5585 5583 5582 5580 5578 5576 5573 5571 5568 5565 5562 5560 5557 5554 5551 5548 5545 5543 5539 5536 5533 5530 5527 5523 5520 5517 5514 5511 5508 5505 5502 5499 5497 5494 5492 5490 5487 5485 5483